Location: Newark
(48.9320°N, 2.2664°E)
Time: 02:23:01
(UTC+00:00)

Courier 1B Rocket - All Passes

Search period start: 23 February 2020 00:00
Search period end: 04 March 2020 00:00
Orbit: 920 x 1202 km, 28.2° (Epoch: 22 February)

Date Brightness Start Highest point End Pass type
(mag) Time Alt. Az. Time Alt. Az. Time Alt. Az.
23 Feb - 02:08:52 10° SSW 02:10:38 11° S 02:12:24 10° SSE night (unlit)
24 Feb - 01:08:35 10° S 01:10:03 11° S 01:11:30 10° SSE night (unlit)
26 Feb - 00:59:57 10° S 01:00:51 10° S 01:01:46 10° S night (unlit)
26 Feb - 23:59:31 10° S 00:00:17 10° S 00:01:04 10° S night (unlit)
29 Feb - 22:49:59 10° S 22:50:34 10° S 22:51:09 10° S night (unlit)
03 Mar - 21:39:41 10° S 21:40:50 10° S 21:41:58 10° S visible
